Location: Newark
(34.9471°N, 136.1778°E)
Time: 15:04:15
(UTC+00:00)

METEOR M2 - Pass Details

Date: 26 February 2020
Orbit: 818 x 828 km, 98.5° (Epoch: 09 April)

Event Time Altitude Azimuth Distance (km) Brightness Sun altitude
Exits shadow 11:53:00 13° 232° (SW) 2,194 ? -38.4°
Maximum altitude 11:55:40 19° 266° (W) 1,896 ? -38.9°
Drops below altitude 10° 11:59:22 10° 310° (NW) 2,434 ? -39.6°
Sets 12:02:28 0° 328° (NNW) 3,372 ? -40.2°
